Regional Weather Roundup
Issued by NWS Upton, NY

Current Version | Previous Version | Graphics & Text | Print | Product List | Glossary Off
Versions: 1 2 3 4 5 6 7 8 9 10 11 12 13 14 15 16 17 18 19 20 21 22 23 24 25 26 27 28 29 30 31 32 33 34 35 36 37 38 39 40 41 42 43 44 45 46 47 48 49 50

000
ASUS41 KOKX 301904
RWROKX

REGIONAL WEATHER ROUNDUP
NATIONAL WEATHER SERVICE NEW YORK NY
300 PM EDT SUN AUG 30 2015

NOTE: "FAIR" INDICATES FEW OR NO CLOUDS BELOW 12,000 FEET WITH NO
SIGNIFICANT WEATHER AND/OR OBSTRUCTIONS TO VISIBILITY.

NYZ071-072-176-178-NJZ106-104-302000-
NEW YORK CITY METRO AREA


CITY           SKY/WX    TMP DP  RH WIND       PRES   REMARKS
CENTRAL PARK   PTSUNNY   88  64  44 CALM      30.07F
LAGUARDIA APRT PTSUNNY   89  65  44 S13       30.03F HX  91
KENNEDY INTL   PTSUNNY   84  67  56 S14       30.07F
NEWARK/LIBERTY PTSUNNY   89  66  46 S9        30.03F HX  91
BRNX BOT. GARD   N/A     88  63  42 S5        30.05F
TETERBORO      PTSUNNY   88  63  43 S10       30.02F
$$

NYZ177-179-078>081-302000-
LONG ISLAND NEW YORK

CITY           SKY/WX    TMP DP  RH WIND       PRES   REMARKS
FARMINGDALE    MOSUNNY   85  66  53 S10       30.06F
ISLIP          PTSUNNY   84  66  54 S12       30.04F
SHIRLEY        PTSUNNY   83  67  58 S10       30.07F
WESTHAMPTON    PTSUNNY   82  67  60 SW10      30.08F
MONTAUK POINT    N/A     82  67  60 VRB6      30.07F
$$

NYZ052-065-067-302000-
HUDSON VALLEY

CITY           SKY/WX    TMP DP  RH WIND       PRES   REMARKS
WHITE PLAINS   PTSUNNY   84  64  50 S3        30.05F
NEWBURGH       PTSUNNY   82  68  61 W6        30.06F
MONTGOMERY     PTSUNNY   85  69  58 SW16      30.04F
POUGHKEEPSIE   MOSUNNY   87  63  44 W8        30.02F
ALBANY         PTSUNNY   83  62  49 VRB3      30.05F
$$

NJZ001-105-106-008-010-013-015-019>022-104-302000-
NEW JERSEY

CITY           SKY/WX    TMP DP  RH WIND       PRES   REMARKS
NEWARK/LIBERTY PTSUNNY   89  66  46 S9        30.03F HX  91
TETERBORO      PTSUNNY   88  63  43 S10       30.02F
CALDWELL       PTSUNNY   89  63  41 SW7       30.04F HX  90
MORRISTOWN     MOSUNNY   90  63  40 MISG      30.05F HX  90
SOMERVILLE     PTSUNNY   89  64  43 VRB5      30.02F HX  90
SUSSEX         CLOUDY    78  69  73 NW8       30.06F
ANDOVER          N/A     84  69  60 SW6       30.07F
TRENTON        PTSUNNY   88  65  46 SW8       30.05F HX  90
MILLVILLE      CLOUDY    84  65  52 VRB7G20   30.09F
ATLANTIC CITY  CLOUDY    87  65  47 SW9       30.08F
WRIGHTSTOWN    PTSUNNY   89  65  45 SW10      30.02F HX  91
TOMS RIVER     PTSUNNY   90  63  40 SW12      30.06F HX  90
BELMAR         PTSUNNY   90  64  43 NW10      30.06F HX  91
$$

PAZ047>061-062-071-302000-
EASTERN PENNSYLVANIA

CITY           SKY/WX    TMP DP  RH WIND       PRES   REMARKS
PHILADELPHIA   PTSUNNY   89  63  41 SW12      30.06F HX  90
ALLENTOWN      PTSUNNY   86  65  49 W9        30.06F
SCRANTON       PTSUNNY   82  66  58 VRB6      30.07F
$$

CTZ002-004>006-009-010-012-RIZ004-006-007-MAZ004-011-015-302000-
SOUTHERN NEW ENGLAND
 IN CT

CITY           SKY/WX    TMP DP  RH WIND       PRES   REMARKS
BRADLEY INTL   PTSUNNY   85  62  46 W6        30.03F
HARTFORD       PTSUNNY   87  59  38 W8        30.03F
DANBURY        PTSUNNY   85  62  46 SW8       30.06F
WTRBRY/OXFORD  PTSUNNY   84  61  45 CALM      30.08F
BRIDGEPORT     PTSUNNY   85  65  51 SW9       30.04F
MERIDEN        PTSUNNY   89  63  41 S9        30.03F HX  90
NEW HAVEN      PTSUNNY   83  65  54 S8        30.05F
CHESTER        NOT AVBL
GROTON         MOSUNNY   78  71  79 S8        30.05F
WILLIMANTIC    MOSUNNY   86  61  42 W8        30.04F

 IN RI

CITY           SKY/WX    TMP DP  RH WIND       PRES   REMARKS
PROVIDENCE     PTSUNNY   87  60  40 W7        30.04F
BLOCK ISLAND   MOSUNNY   79  68  69 SW14      30.07F
WESTERLY       MOSUNNY   83  65  54 SW9       30.06F

 IN MA

CITY           SKY/WX    TMP DP  RH WIND       PRES   REMARKS
BOSTON         PTSUNNY   88  59  37 W12       30.01F
WORCESTER      MOSUNNY   80  57  45 SW12      30.08F
WESTFIELD      PTSUNNY   84  63  49 SW7       30.04F
PROVINCETOWN   MOSUNNY   82  64  54 SW10      30.02F
NANTUCKET      MOSUNNY   78  69  73 SW14      30.06F
$$

ANZ330-335-338-340-345-350-353-355-302000-
COASTAL MARINE OBSERVATIONS


STATION/POSITION TIME  SKY/WX   TEMP    WIND        PRES    VSBY  WAVE
                                AIR SEA DIR/SP/G                  HT/PER
                 (UTC)          (F)     (DEG/KT/KT) (MB)    (MI)  (FT/S)
NY HARB ENTRANCE 1750            77 75  190/ 10/ 12 1018.5          2/10
4S FIRE IS       NOT AVBL
20S FIRE ISLAND  1750            75 74  220/ 12/ 14 1018.8          3/10
GREAT SOUTH BAY  1800            75 78  230/ 10/ 14   N/A
23SW MTP         1850            74 73  240/ 12/ 14 1018.1          3/10
HUDSON CANYON    NOT AVBL
KINGS POINT      NOT AVBL
EXECUTION ROCKS  1800            82     190/  8/ 10   N/A
CENTRAL LI SOUND NOT AVBL
EASTERN LI SOUND 1800            74 71  260/  4/  6   N/A
ROBBINS REEF     NOT AVBL
$$


>>>>>>>>>>>>>>>>>>>>>>>>>>>> KEY <<<<<<<<<<<<<<<<<<<<<<<<<<<
>                                                          <
>     SKY/WX - SKY CONDITION/PRESENT WEATHER               <
>     TMP    - TEMPERATURE IN FAHRENHEIT                   <
>     DP     - DEWPOINT IN FAHRENHEIT                      <
>     RH     - RELATIVE HUMIDITY IN PERCENT                <
>     WIND   - DIRECTION AND SPEED IN MPH                  <
>     PRES   - MEAN SEA LEVEL PRESSURE IN INCHES OF HG     <
>     WCI    - WIND CHILL INDEX                            <
>     VSB    - VISIBILITY IN MILES                         <
>     HX     - HEAT INDEX                                  <
>     TC     - TEMPERATURE IN CELSIUS                      <
>     VRB    - VARIABLE WIND DIRECTION                     <
>                                                          <
>>>>>>>>>>>>>>>>>>>>>>>>>>>> KEY <<<<<<<<<<<<<<<<<<<<<<<<<<<





USA.gov is the U.S. government's official web portal to all federal, state and local government web resources and services.